Terminal Aerodrome Forecast
Issued by NWS Wakefield, VA

Home | Current Version | Previous Version | Text Only | Print | Product List | Glossary On
Versions: 1 2 3 4 5 6 7 8 9 10 11 12 13 14 15 16 17 18 19 20 21
000
FTUS41 KAKQ 191100
TAFRIC
TAF
KRIC 191120Z 1912/2012 34005KT P6SM SCT090
     FM191500 36006KT P6SM SCT040
     FM192200 01003KT P6SM SKC=

USA.gov is the U.S. government's official web portal to all federal, state and local government web resources and services.